Regional Weather Roundup
Issued by NWS Charleston, SC

Current Version | Previous Version | Graphics & Text | Print | Product List | Glossary On
Versions: 1 2 3 4 5 6 7 8 9 10 11 12 13 14 15 16 17 18 19 20 21 22 23 24 25 26 27 28 29 30 31 32 33 34 35 36 37 38 39 40 41 42 43 44 45 46 47 48 49 50
000 ASUS42 KCHS 231212 RWRCHS REGIONAL WEATHER ROUNDUP NATIONAL WEATHER SERVICE CHARLESTON SC 800 AM EDT FRI JUN 23 2017 NOTE: "FAIR" INDICATES FEW OR NO CLOUDS BELOW 12,000 FEET WITH NO SIGNIFICANT WEATHER AND/OR OBSTRUCTIONS TO VISIBILITY. NOT ALL STATIONS ARE QUALITY CONTROLLED. USE DATA WITH CAUTION... ESPECIALLY DEWPOINT OBSERVATIONS. SCZ027-030-031-034>040-042>050-231300- ...SOUTHEAST SOUTH CAROLINA... CITY SKY/WX TMP DP RH WIND PRES REMARKS N CHARLESTON PTSUNNY 79 75 87 S8 30.04S 6HR MIN TEMP: 76; 6HR MAX TEMP: 79; WATERFRONT PRK N/A 80 76 87 S7 30.03R JOHNS ISLAND CLOUDY 82 75 78 S9 30.05S PINOPOLIS N/A 79 77 94 VRB2 29.97R MONCKS CORNER FAIR 75 73 94 SW5 30.04S SUMMERVILLE FAIR 77 75 94 CALM 30.05S BEAUFORT MCAS MOSUNNY 81 78 91 S8 30.04S 6HR MIN TEMP: 79; 6HR MAX TEMP: 81; BEAUFORT ARPT FAIR 81 75 83 SW7 30.04S HILTON HEAD IS MOSUNNY 82 77 83 S9 30.06R HX 91 WALTERBORO MOSUNNY 77 75 94 S5 30.05S ALLENDALE CLOUDY 77 75 94 S5 30.03S ...SOUTHERN MIDLANDS AND PEE DEE... CITY SKY/WX TMP DP RH WIND PRES REMARKS GEORGETOWN FAIR 77 77 100 SW5 30.06R KINGSTREE CLOUDY 77 73 88 CALM 30.04S ORANGEBURG CLOUDY 77 75 93 SW7 30.05R 6HR MIN TEMP: 75; 6HR MAX TEMP: 77; 6HR PCP: TRACE; BARNWELL CLOUDY 79 77 94 SW5 30.05R AIKEN FAIR 75 72 88 SW5 30.08R MANNING PTSUNNY 79 77 94 SW25 30.04S COLUMBIA PTSUNNY 79 74 84 SW7 30.03R 6HR MIN TEMP: 77; 6HR MAX TEMP: 79; SUMTER CLOUDY 77 73 88 SW8 30.02R 6HR MIN TEMP: 75; 6HR MAX TEMP: 77; FLORENCE PTSUNNY 78 76 93 SW10 30.03S 6HR MIN TEMP: 75; 6HR MAX TEMP: 78; MYRTLE BEACH MOSUNNY 79 75 89 SW7 30.05S N MYRTLE BEACH CLOUDY 80 77 90 SW8 30.04R 6HR MIN TEMP: 79; 6HR MAX TEMP: 80; $$ GAZ063-065-086>088-099>101-113>116-118-119-134>141-150-231300- ...SOUTHEAST GEORGIA... CITY SKY/WX TMP DP RH WIND PRES REMARKS SAVANNAH ARPT PTSUNNY 80 73 79 S8 30.05R 6HR MIN TEMP: 77; 6HR MAX TEMP: 80; HUNTER AAF MOSUNNY 80 75 87 S6 30.03R 6HR MIN TEMP: 78; 6HR MAX TEMP: 80; FORT STEWART PTSUNNY 76 73 90 S6 30.03R 6HR MIN TEMP: 74; 6HR MAX TEMP: 77; STATESBORO MOSUNNY 78 78 100 S5 30.05R SYLVANIA MOSUNNY 77 77 100 CALM 30.05S CLAXTON FAIR N/A N/A N/A CALM 30.05R ...CSRA...CENTRAL AND FAR SOUTHEAST GEORGIA... CITY SKY/WX TMP DP RH WIND PRES REMARKS THOMSON CLOUDY 75 73 93 W5 30.09R AUGUSTA-BUSH CLOUDY 79 75 87 S6 30.03R 6HR MIN TEMP: 78; 6HR MAX TEMP: 80; AUGUSTA-DANIEL MOSUNNY 78 72 81 S6 30.04S SWAINSBORO CLOUDY 75 75 100 CALM 30.06R VIDALIA CLOUDY 77 75 94 S6 30.05R FOG EASTMAN FAIR 75 75 100 CALM 30.07R HAZLEHURST CLOUDY 76 76 100 CALM 30.05R FOG ALMA MOSUNNY 77 74 90 S5 30.05R 6HR MIN TEMP: 74; 6HR MAX TEMP: 77; WAYCROSS NOT AVBL JESUP FAIR 75 72 88 CALM 30.06R BAXLEY FAIR 77 77 100 CALM 30.05R BRUNSWICK SUNNY 81 75 83 S8 30.06S SAINT SIMONS SUNNY 80 74 81 SW9 30.05R 6HR MIN TEMP: 79; 6HR MAX TEMP: 82; $$ SCZ027-028-034-036>038-045-046-048>050-GAZ119-141-231300- ...LAKE AND SUPPLEMENTAL COASTAL OBSERVATIONS... STATION/POSITION TIME TEMP WIND PRES WAVE SWELL AIR SEA DIR/SP/G HT/PER HT/PER/DIR (UTC) (F) (DEG/KT/KT) (MB) (FT/S) (FT/S/D) WINYAH BAY 1045 77 240/ 3 1017.0 LAKE MURRAY 1120 78 220/ 11/ 13 1015.6 ACE BASIN NERRS 1045 79 CALM 1017.0 FORT PULASKI 1148 81 83 220/ 6/ 9 1017.9R SAPELO ISLAND 1100 78 210/ 4 1017.0 $$ ANZ835-935-AMZ111-154-330-350-352-354-370-450-454-472-231300- ...C-MAN AND BUOY OBSERVATIONS... STATION/POSITION TIME TEMP WIND PRES WAVE SWELL AIR SEA DIR/SP/G HT/PER HT/PER/DIR (UTC) (F) (DEG/KT/KT) (MB) (FT/S) (FT/S/D) BUOY 41004 1150 81 81 210/ 14/ 16 1017.5R 4/ 8 2/130/ 8 BUOY 41008 1050 80 81 180/ 16/ 17 1016.5 4/ 5 2/100/ 8 FOLLY BEACH CMAN 1100 81 210/ 15/ 18 1018.0R CAPERS NEARSHORE 1108 85 82 230/ 16/ 19 1017.0R FRIPP NEARSHORE 1108 81 82 210/ 14/ 17 1016.9R STATION/POSITION TIME TEMP WIND PRES WAVE SWELL AIR SEA DIR/SP/G HT/PER HT/PER/DIR (UTC) (F) (DEG/KT/KT) (MB) (FT/S) (FT/S/D) 5E ST. MARYS GA 1130 80 N/A 4/ 8 FRYING PAN BUOY 1150 81 81 230/ 16/ 17 1017.5R 4/ 9 3/130/ 9 BUOY 41025 1150 80 80 240/ 14/ 16 1016.8R 3/ 8 2/180/ 8 CAPE LOOKOUT NC 1100 79 240/ 10/ 13 1016.7R BUOY 41002 1050 80 81 230/ 10/ 12 1019.0 4/ 9 3/100/ 9 BUOY 41010 1150 82 83 150/ 10/ 14 1018.4R 5/ 9 5/130/ 9 ST AUGUSTINE FL 1200 76 77 170/ 6/ 7 1018.9R $$

USA.gov is the U.S. government's official web portal to all federal, state and local government web resources and services.